Flag for U.S.A. Weather past 2 weeks in Lowell, Massachusetts, U.S.A.

61 °F

Partly cloudy.

Feels Like: 61 °F
Forecast: 49 / 66 °F
Wind: 7 mph from West

Location: Hanscom Field

Current Time: Oct 14, 2015 at 12:20:15 AM

Latest Report: Oct 13, 2015 at 11:56 PM

Visibility: 10 mi

Pressure: 29.58 "Hg

Humidity: 81%

Dew point: 55 °F

Location of LowellLocation

Historic Weather in Lowell — Graph


Lowell temperature yesterday

Maximum temperature yesterday: 70 °F (at 3:56 PM)
Minimum temperature yesterday: 49 °F (at 3:56 AM)
Average temperature yesterday: 59 °F

Past Weeks' High & Low Weather Summary

High83 °F (Sep 29, 1:56 PM)100% (Sep 30, 5:56 PM)30.50 "Hg (Sep 30, 5:56 PM)
Low37 °F (Oct 6, 3:56 AM)27% (Oct 12, 3:56 PM)29.49 "Hg (Oct 13, 5:56 PM)
Average56 °F75%30.05 "Hg
* Reported Sep 28 10:56 PM — Oct 13 10:56 PM, Lowell, Weather by CustomWeather, © 2015

Note: Actual official high and low records may vary slightly from our data, if they occured in-between our weather recording intervals... More about our weather records


Lowell weather history for previous 24 hours

Time TempWeatherWind HumidityBarometerVisibility
10:56 PM
Tue, Oct 13
61 °FClear.7 mph87%29.57 "Hg10 mi
9:56 PM62 °FClear.8 mph86%29.54 "Hg10 mi
8:56 PM63 °FClear.9 mph87%29.53 "Hg10 mi
7:56 PM64 °FPassing clouds.8 mph81%29.51 "Hg10 mi
6:56 PM66 °FPartly sunny.8 mph78%29.50 "Hg10 mi
5:56 PM66 °FPassing clouds.8 mph75%29.49 "Hg10 mi
4:56 PM69 °FScattered clouds.7 mph70%29.49 "Hg10 mi
3:56 PM70 °FOvercast.8 mph68%29.51 "Hg10 mi
2:56 PM69 °FPartly sunny.10 mph68%29.52 "Hg10 mi
1:56 PM68 °FMore clouds than sun.8 mph76%29.54 "Hg10 mi
1:03 PM65 °FMostly cloudy.6 mph85%29.53 "Hg10 mi
12:03 PM61 °FFog.6 mph90%29.55 "Hg6 mi
11:56 AM61 °FFog.5 mph90%29.58 "Hg2 mi
10:56 AM58 °FFog.No wind93%29.59 "Hg1 mi
9:59 AM56 °FFog.No wind93%29.59 "Hg3 mi
9:03 AM54 °FFog.5 mph97%29.61 "Hg1 mi
8:56 AM54 °FLight rain. Fog.5 mph97%29.65 "Hg0 mi
7:56 AM53 °FLight rain. Fog.3 mph96%29.64 "Hg4 mi
7:03 AM52 °FMostly cloudy.3 mph93%29.62 "Hg9 mi
6:56 AM52 °FFog.3 mph93%29.66 "Hg5 mi
5:56 AM53 °FFog.5 mph93%29.68 "Hg6 mi
5:04 AM52 °FFog.3 mph97%29.66 "Hg1 mi
4:56 AM52 °FFog.No wind97%29.69 "Hg1 mi
3:56 AM49 °FClear.No wind93%29.70 "Hg9 mi
2:56 AM52 °FClear.No wind93%29.72 "Hg10 mi
1:56 AM53 °FClear.3 mph89%29.74 "Hg10 mi
12:56 AM52 °FClear.3 mph93%29.74 "Hg10 mi
Weather by CustomWeather, © 2015

See weather overviewHow to use our weather pages